Regional Weather Roundup
Issued by NWS

Home | Current Version | Previous Version | Text Only | Print | Product List | Glossary Off
Versions: 1 2 3 4 5 6 7 8 9 10 11 12 13 14 15 16 17 18 19 20 21 22 23 24 25 26 27 28 29 30 31 32 33 34 35 36 37 38 39 40 41 42 43 44 45 46 47 48 49 50

000
ASUS43 KFSD 012010
RWRSD

WEATHER ROUNDUP FOR SOUTH DAKOTA
NATIONAL WEATHER SERVICE SIOUX FALLS SD
200 PM CST SUN FEB 01 2015

NOTE: "FAIR" INDICATES FEW OR NO CLOUDS BELOW 12,000 FEET WITH NO
SIGNIFICANT WEATHER AND/OR OBSTRUCTIONS TO VISIBILITY.


SDZ001>005-009-010-012>017-012100-
NORTHWEST AND NORTH CENTRAL SOUTH DAKOTA

CITY           SKY/WX    TMP DP  RH WIND       PRES   REMARKS
BUFFALO          N/A     10   3  73 NW8       30.23F WCI  -2
FAITH            N/A      6  -3  66 NW12      30.35F WCI  -9
MOBRIDGE       SUNNY      4 -11  50 N10       30.39F WCI -11
$$

SDZ012>016-024>037-041>051-057-063-072>074-012100-
SOUTHWEST AND SOUTH CENTRAL SOUTH DAKOTA

CITY           SKY/WX    TMP DP  RH WIND       PRES   REMARKS
RAPID CTY ARPT SUNNY     12   6  77 N17       30.30F WCI  -5
PIERRE         MOSUNNY    4  -5  66 NW17      30.41F WCI -16
CUSTER         SUNNY     18   2  49 N8        30.09F WCI   8
ELLSWORTH AFB  SUNNY     12   5  74 N12       30.29F WCI  -2
PHILIP         MOSUNNY   10  -1  61 NW13      30.39F WCI  -5
PINE RIDGE     MOSUNNY   11   2  67 NW10      30.30F WCI  -3
SPEARFISH      FAIR      12   5  73 NW9       30.23F WCI   0
WINNER         CLOUDY     4  -4  69 NW21G29   30.36F WCI -17
$$

SDZ004>011-016>023-039-040-012100-
NORTHEAST SOUTH DAKOTA

CITY           SKY/WX    TMP DP  RH WIND       PRES   REMARKS
ABERDEEN       SUNNY      7  -7  52 N17G24    30.44F WCI -12
WATERTOWN      MOSUNNY    6  -1  73 N16       30.29S WCI -12
SISSETON         N/A      5  -8  55 N21       30.39F WCI -16
$$

SDZ017-020-022-023-036>040-048>070-012100-
SOUTHEAST SOUTH DAKOTA

CITY           SKY/WX    TMP DP  RH WIND       PRES   REMARKS
SIOUX FALLS    CLOUDY     8   1  73 N23       30.24S BLWGSNOWWCI -13
HURON          PTSUNNY    4  -5  66 N22       30.39F WCI -18
CHAMBERLAIN    MOSUNNY    3  -4  70 N23G30    30.38F WCI -19
MITCHELL       CLOUDY     4  -2  76 N22       30.37S BLWGSNOWWCI -18
YANKTON        MOSUNNY    5   0  78 NW26G32   30.30S WCI -18
$$

ABBREVIATIONS USED IN REMARKS
   TC - TEMPERATURE IN CELSIUS
  WCI - WIND CHILL INDEX
   HX - HEAT INDEX
  VSB - VISIBILITY



USA.gov is the U.S. government's official web portal to all federal, state and local government web resources and services.